Precipitable_Water
0.34 0.24 0.22 0.21 0.22 0.24 0.25 0.25 0.25 0.25 0.24 0.23 0.22 0.20 0.19 0.19 0.19 0.21 0.21 0.22 0.22 0.18 0.17 0.17 0.18 0.19 0.23 0.28 0.32 0.34 0.35 0.30 0.31 0.31 0.33 0.35 0.35 0.34 0.32 0.31 0.30 0.29 0.34 0.52 0.72 0.83 0.98 1.09 1.09 1.10 1.11 1.16 1.26 1.31 1.33 1.35 1.37 1.38 1.37 1.37 1.30 1.31 1.30 1.28 1.25 1.25 1.24 1.19 1.19 1.22 1.22 1.18 1.17 1.12 1.05 0.98 0.94 0.88 0.85 0.87 0.89 0.89 0.89 0.91 0.92 0.91
0.33 0.24 0.24 0.26 0.28 0.29 0.28 0.29 0.28 0.26 0.26 0.23 0.22 0.20 0.20 0.20 0.18 0.22 0.21 0.23 0.24 0.19 0.18 0.20 0.20 0.22 0.25 0.30 0.33 0.36 0.32 0.30 0.31 0.32 0.32 0.35 0.39 0.39 0.38 0.35 0.35 0.38 0.38 0.36 0.51 0.78 0.88 1.04 1.09 1.10 1.09 1.13 1.15 1.23 1.29 1.30 1.32 1.35 1.40 1.37 1.36 1.35 1.30 1.27 1.26 1.24 1.24 1.23 1.18 1.17 1.23 1.28 1.27 1.21 1.12 1.01 0.99 0.91 0.88 0.90 0.92 0.92 0.91 0.91 0.90 0.88
0.25 0.24 0.27 0.30 0.32 0.33 0.32 0.31 0.30 0.27 0.25 0.26 0.23 0.22 0.20 0.20 0.22 0.24 0.23 0.24 0.24 0.21 0.19 0.21 0.18 0.22 0.26 0.31 0.34 0.35 0.36 0.39 0.40 0.39 0.39 0.39 0.39 0.40 0.42 0.40 0.40 0.42 0.41 0.40 0.37 0.50 0.80 0.95 1.04 1.08 1.09 1.05 1.03 1.11 1.18 1.25 1.32 1.34 1.36 1.39 1.41 1.39 1.33 1.28 1.29 1.26 1.22 1.25 1.26 1.22 1.26 1.32 1.34 1.39 1.33 1.22 1.16 1.14 1.04 0.96 0.95 0.94 0.92 0.90 0.88 0.87
0.21 0.26 0.30 0.34 0.34 0.32 0.31 0.32 0.30 0.29 0.28 0.26 0.25 0.22 0.20 0.22 0.21 0.19 0.23 0.24 0.25 0.22 0.20 0.22 0.19 0.23 0.27 0.33 0.34 0.38 0.39 0.41 0.44 0.43 0.42 0.43 0.41 0.42 0.44 0.46 0.44 0.44 0.44 0.41 0.38 0.39 0.57 0.88 0.98 1.04 1.05 1.04 1.04 1.09 1.15 1.21 1.24 1.32 1.33 1.36 1.40 1.41 1.40 1.35 1.31 1.29 1.31 1.31 1.30 1.29 1.31 1.37 1.38 1.37 1.43 1.37 1.28 1.20 1.13 1.03 0.99 0.95 0.92 0.90 0.89 0.91
0.25 0.30 0.35 0.35 0.34 0.32 0.28 0.30 0.29 0.27 0.24 0.27 0.26 0.24 0.24 0.24 0.24 0.22 0.22 0.25 0.25 0.24 0.23 0.21 0.19 0.19 0.24 0.24 0.29 0.37 0.41 0.40 0.42 0.43 0.41 0.42 0.45 0.46 0.48 0.48 0.51 0.47 0.50 0.49 0.41 0.39 0.44 0.64 0.83 0.89 0.94 1.01 1.00 1.01 1.05 1.11 1.17 1.23 1.29 1.34 1.39 1.41 1.41 1.40 1.37 1.35 1.34 1.32 1.28 1.29 1.31 1.35 1.37 1.44 1.44 1.39 1.26 1.19 1.13 1.08 1.01 0.91 0.93 0.94 0.96 1.00
0.29 0.34 0.37 0.34 0.32 0.32 0.30 0.27 0.28 0.27 0.23 0.25 0.27 0.26 0.25 0.26 0.25 0.25 0.26 0.25 0.23 0.20 0.22 0.20 0.14 0.14 0.22 0.24 0.27 0.35 0.37 0.34 0.41 0.40 0.39 0.40 0.42 0.43 0.40 0.43 0.48 0.51 0.56 0.56 0.52 0.50 0.49 0.50 0.66 0.85 0.94 0.96 0.98 0.99 1.05 1.13 1.20 1.25 1.29 1.35 1.38 1.41 1.43 1.41 1.40 1.39 1.35 1.27 1.21 1.18 1.14 1.12 1.16 1.19 1.28 1.27 1.15 1.12 1.05 0.96 0.95 0.96 0.97 0.98 1.01 1.04
0.29 0.37 0.36 0.33 0.33 0.32 0.31 0.28 0.29 0.28 0.24 0.21 0.24 0.28 0.27 0.26 0.26 0.26 0.26 0.25 0.20 0.18 0.23 0.25 0.15 0.13 0.19 0.21 0.26 0.31 0.34 0.35 0.40 0.41 0.42 0.44 0.45 0.46 0.46 0.48 0.48 0.48 0.51 0.56 0.57 0.57 0.55 0.57 0.60 0.71 0.85 0.94 0.98 1.04 1.08 1.14 1.20 1.27 1.30 1.33 1.38 1.39 1.39 1.43 1.43 1.42 1.36 1.28 1.24 1.17 1.13 1.12 1.12 1.12 1.22 1.35 1.35 1.22 1.17 1.16 1.11 1.05 1.03 1.02 1.02 1.06
0.37 0.35 0.35 0.35 0.33 0.31 0.29 0.26 0.30 0.30 0.25 0.21 0.27 0.27 0.27 0.26 0.26 0.26 0.27 0.26 0.24 0.27 0.27 0.26 0.22 0.15 0.14 0.22 0.30 0.33 0.32 0.34 0.36 0.39 0.42 0.46 0.50 0.50 0.52 0.54 0.53 0.52 0.54 0.55 0.56 0.60 0.64 0.68 0.68 0.67 0.78 0.87 0.93 0.98 1.05 1.11 1.18 1.22 1.27 1.29 1.32 1.39 1.41 1.44 1.45 1.45 1.42 1.29 1.26 1.21 1.18 1.18 1.16 1.15 1.18 1.28 1.34 1.40 1.32 1.25 1.19 1.14 1.09 1.07 1.07 1.07
0.38 0.35 0.35 0.33 0.32 0.31 0.29 0.30 0.32 0.32 0.26 0.25 0.28 0.28 0.26 0.26 0.26 0.26 0.26 0.25 0.26 0.23 0.19 0.21 0.23 0.17 0.15 0.24 0.34 0.33 0.26 0.29 0.33 0.38 0.43 0.47 0.50 0.54 0.55 0.57 0.59 0.57 0.58 0.58 0.57 0.58 0.61 0.68 0.76 0.78 0.82 0.94 0.98 0.99 1.00 1.06 1.14 1.21 1.26 1.28 1.32 1.35 1.38 1.40 1.46 1.43 1.48 1.45 1.36 1.30 1.26 1.20 1.22 1.23 1.25 1.31 1.37 1.39 1.41 1.30 1.26 1.19 1.17 1.13 1.12 1.09
0.40 0.40 0.40 0.39 0.35 0.31 0.35 0.35 0.34 0.32 0.25 0.29 0.31 0.31 0.30 0.29 0.27 0.26 0.24 0.24 0.24 0.21 0.16 0.18 0.21 0.15 0.15 0.25 0.26 0.32 0.28 0.28 0.34 0.39 0.44 0.50 0.51 0.53 0.57 0.60 0.65 0.63 0.63 0.64 0.62 0.63 0.66 0.71 0.74 0.81 0.85 0.92 1.00 1.04 1.06 1.09 1.15 1.20 1.23 1.25 1.27 1.30 1.37 1.37 1.40 1.40 1.38 1.43 1.42 1.32 1.27 1.23 1.23 1.24 1.26 1.29 1.30 1.35 1.43 1.36 1.30 1.23 1.19 1.17 1.14 1.13
0.40 0.45 0.46 0.40 0.36 0.38 0.38 0.37 0.36 0.33 0.31 0.34 0.32 0.28 0.26 0.26 0.26 0.26 0.25 0.23 0.21 0.16 0.17 0.21 0.23 0.18 0.13 0.24 0.28 0.25 0.29 0.34 0.38 0.42 0.47 0.51 0.55 0.57 0.61 0.63 0.65 0.66 0.64 0.64 0.63 0.64 0.67 0.73 0.74 0.80 0.80 0.88 0.95 1.03 1.08 1.09 1.13 1.19 1.21 1.24 1.24 1.30 1.36 1.40 1.39 1.36 1.35 1.37 1.36 1.31 1.27 1.25 1.24 1.25 1.24 1.23 1.25 1.33 1.39 1.36 1.33 1.27 1.21 1.23 1.20 1.18
0.37 0.39 0.38 0.41 0.46 0.44 0.40 0.35 0.38 0.36 0.34 0.32 0.28 0.26 0.24 0.23 0.25 0.23 0.22 0.23 0.16 0.13 0.19 0.24 0.21 0.21 0.13 0.22 0.32 0.39 0.44 0.45 0.42 0.41 0.45 0.52 0.55 0.56 0.58 0.59 0.62 0.64 0.66 0.64 0.63 0.64 0.69 0.71 0.73 0.78 0.80 0.84 0.92 0.97 1.00 1.04 1.08 1.13 1.20 1.23 1.24 1.27 1.33 1.36 1.41 1.45 1.44 1.40 1.36 1.32 1.27 1.24 1.28 1.29 1.28 1.25 1.25 1.33 1.35 1.36 1.31 1.31 1.28 1.26 1.29 1.26
0.32 0.35 0.41 0.42 0.48 0.43 0.38 0.33 0.35 0.37 0.36 0.30 0.27 0.25 0.19 0.17 0.18 0.16 0.18 0.15 0.14 0.13 0.21 0.24 0.24 0.19 0.19 0.28 0.36 0.40 0.43 0.46 0.48 0.49 0.51 0.53 0.56 0.58 0.58 0.58 0.60 0.64 0.66 0.63 0.62 0.65 0.68 0.71 0.72 0.73 0.75 0.82 0.88 0.94 0.98 1.00 1.03 1.08 1.15 1.21 1.19 1.21 1.29 1.30 1.34 1.40 1.44 1.48 1.47 1.36 1.27 1.23 1.25 1.28 1.31 1.35 1.39 1.46 1.42 1.39 1.35 1.31 1.26 1.28 1.28 1.26
0.30 0.36 0.40 0.41 0.43 0.48 0.42 0.31 0.31 0.30 0.32 0.28 0.25 0.23 0.19 0.15 0.14 0.12 0.15 0.18 0.18 0.21 0.25 0.25 0.28 0.19 0.29 0.34 0.41 0.39 0.45 0.50 0.52 0.55 0.55 0.56 0.61 0.62 0.61 0.61 0.61 0.62 0.65 0.66 0.63 0.65 0.67 0.70 0.70 0.72 0.73 0.77 0.84 0.90 0.95 0.99 1.01 1.04 1.05 1.10 1.16 1.19 1.29 1.33 1.34 1.39 1.38 1.38 1.46 1.52 1.38 1.31 1.28 1.25 1.26 1.28 1.37 1.45 1.49 1.49 1.46 1.35 1.29 1.27 1.29 1.30
0.22 0.24 0.34 0.39 0.35 0.49 0.44 0.40 0.38 0.33 0.32 0.29 0.30 0.25 0.23 0.20 0.16 0.12 0.14 0.12 0.15 0.18 0.23 0.31 0.21 0.18 0.20 0.27 0.43 0.45 0.50 0.53 0.57 0.59 0.60 0.60 0.69 0.70 0.66 0.64 0.62 0.59 0.63 0.66 0.65 0.65 0.65 0.68 0.71 0.72 0.73 0.75 0.80 0.86 0.90 0.96 1.01 1.02 1.05 1.09 1.10 1.12 1.22 1.24 1.18 1.24 1.28 1.34 1.39 1.39 1.42 1.43 1.36 1.35 1.33 1.27 1.28 1.36 1.38 1.45 1.43 1.44 1.43 1.35 1.37 1.33
0.28 0.28 0.39 0.48 0.47 0.49 0.43 0.48 0.46 0.38 0.31 0.32 0.31 0.30 0.24 0.21 0.24 0.16 0.19 0.19 0.19 0.20 0.20 0.25 0.24 0.32 0.29 0.45 0.49 0.52 0.53 0.54 0.59 0.60 0.62 0.60 0.68 0.73 0.69 0.65 0.63 0.63 0.60 0.64 0.64 0.67 0.69 0.67 0.69 0.72 0.74 0.77 0.79 0.82 0.85 0.88 0.92 0.95 1.00 1.02 1.02 1.08 1.15 1.22 1.26 1.27 1.24 1.29 1.38 1.40 1.39 1.31 1.27 1.31 1.33 1.32 1.32 1.32 1.32 1.29 1.32 1.37 1.44 1.39 1.42 1.37
0.31 0.28 0.43 0.48 0.52 0.48 0.48 0.49 0.45 0.42 0.23 0.31 0.29 0.23 0.27 0.33 0.28 0.23 0.25 0.28 0.27 0.24 0.21 0.32 0.29 0.34 0.43 0.46 0.49 0.55 0.56 0.57 0.60 0.61 0.63 0.63 0.68 0.71 0.68 0.68 0.67 0.65 0.65 0.64 0.64 0.65 0.71 0.70 0.69 0.71 0.73 0.75 0.75 0.75 0.76 0.81 0.87 0.90 0.92 0.93 0.94 0.98 1.05 1.14 1.20 1.23 1.19 1.21 1.29 1.35 1.34 1.27 1.21 1.21 1.20 1.22 1.25 1.29 1.30 1.27 1.25 1.24 1.27 1.37 1.40 1.41
0.30 0.31 0.44 0.45 0.42 0.52 0.56 0.51 0.49 0.47 0.41 0.34 0.26 0.30 0.36 0.37 0.32 0.25 0.19 0.23 0.22 0.19 0.24 0.31 0.26 0.28 0.28 0.24 0.48 0.53 0.53 0.57 0.60 0.60 0.65 0.66 0.68 0.66 0.68 0.68 0.67 0.69 0.70 0.68 0.67 0.68 0.74 0.76 0.74 0.72 0.72 0.74 0.75 0.73 0.74 0.77 0.81 0.84 0.87 0.88 0.88 0.91 0.95 1.03 1.07 1.13 1.14 1.15 1.21 1.25 1.27 1.26 1.23 1.20 1.20 1.21 1.24 1.27 1.28 1.34 1.33 1.23 1.16 1.23 1.33 1.38
0.42 0.29 0.39 0.47 0.48 0.51 0.55 0.51 0.45 0.48 0.48 0.35 0.31 0.44 0.27 0.22 0.19 0.25 0.22 0.16 0.18 0.19 0.22 0.28 0.31 0.30 0.31 0.31 0.43 0.46 0.50 0.53 0.56 0.61 0.61 0.62 0.64 0.64 0.65 0.66 0.67 0.70 0.71 0.69 0.70 0.71 0.74 0.78 0.78 0.77 0.74 0.74 0.74 0.74 0.74 0.76 0.79 0.82 0.82 0.82 0.80 0.84 0.97 1.04 1.03 1.04 1.04 1.02 1.10 1.22 1.25 1.27 1.26 1.24 1.24 1.24 1.27 1.26 1.24 1.25 1.28 1.25 1.21 1.20 1.24 1.31
0.44 0.31 0.34 0.50 0.47 0.50 0.49 0.45 0.33 0.39 0.45 0.45 0.43 0.35 0.38 0.28 0.24 0.22 0.23 0.24 0.23 0.20 0.21 0.23 0.29 0.25 0.36 0.41 0.47 0.45 0.51 0.53 0.55 0.57 0.57 0.60 0.62 0.62 0.62 0.64 0.65 0.65 0.66 0.66 0.69 0.72 0.73 0.75 0.76 0.75 0.74 0.73 0.73 0.73 0.74 0.73 0.75 0.78 0.82 0.82 0.82 0.87 0.94 1.01 1.01 0.97 0.92 0.90 1.01 1.09 1.19 1.26 1.27 1.25 1.27 1.26 1.27 1.27 1.23 1.22 1.24 1.26 1.23 1.21 1.21 1.24
0.40 0.45 0.29 0.41 0.50 0.47 0.36 0.43 0.38 0.40 0.36 0.35 0.33 0.30 0.31 0.29 0.35 0.32 0.31 0.26 0.23 0.21 0.21 0.21 0.20 0.27 0.40 0.51 0.49 0.49 0.52 0.53 0.54 0.56 0.58 0.59 0.61 0.62 0.62 0.62 0.62 0.63 0.63 0.66 0.66 0.66 0.70 0.70 0.70 0.73 0.73 0.73 0.73 0.72 0.72 0.73 0.73 0.76 0.83 0.87 0.90 0.90 0.93 0.94 0.93 0.92 0.87 0.87 0.94 1.00 1.05 1.15 1.25 1.26 1.27 1.28 1.31 1.30 1.28 1.25 1.24 1.25 1.27 1.31 1.29 1.29
0.42 0.43 0.33 0.37 0.37 0.35 0.38 0.47 0.46 0.46 0.45 0.39 0.35 0.31 0.32 0.26 0.23 0.19 0.19 0.32 0.28 0.23 0.21 0.20 0.19 0.29 0.44 0.54 0.53 0.54 0.56 0.56 0.57 0.58 0.58 0.60 0.61 0.62 0.62 0.63 0.63 0.61 0.62 0.63 0.65 0.65 0.65 0.65 0.67 0.69 0.71 0.73 0.73 0.73 0.72 0.73 0.74 0.74 0.76 0.83 0.88 0.92 0.93 0.92 0.90 0.89 0.84 0.86 0.92 0.93 0.97 1.04 1.17 1.28 1.32 1.32 1.32 1.31 1.32 1.30 1.28 1.28 1.30 1.27 1.29 1.30
0.49 0.46 0.39 0.32 0.35 0.36 0.41 0.48 0.53 0.53 0.51 0.44 0.40 0.35 0.38 0.32 0.28 0.23 0.17 0.22 0.29 0.28 0.29 0.27 0.22 0.27 0.49 0.56 0.56 0.56 0.56 0.57 0.59 0.60 0.57 0.58 0.59 0.61 0.61 0.62 0.62 0.62 0.61 0.62 0.63 0.64 0.64 0.63 0.62 0.62 0.63 0.65 0.67 0.70 0.72 0.75 0.74 0.74 0.74 0.77 0.84 0.88 0.90 0.91 0.91 0.90 0.87 0.88 0.89 0.89 0.91 0.95 1.01 1.10 1.22 1.27 1.30 1.31 1.33 1.33 1.31 1.32 1.29 1.27 1.28 1.32
0.57 0.39 0.34 0.36 0.41 0.43 0.47 0.50 0.52 0.51 0.46 0.40 0.39 0.40 0.36 0.29 0.30 0.28 0.26 0.29 0.25 0.28 0.24 0.25 0.21 0.27 0.46 0.54 0.54 0.54 0.55 0.57 0.59 0.59 0.56 0.56 0.58 0.60 0.60 0.60 0.60 0.59 0.60 0.61 0.61 0.61 0.62 0.62 0.61 0.60 0.58 0.59 0.60 0.61 0.64 0.67 0.71 0.72 0.72 0.75 0.81 0.83 0.86 0.88 0.89 0.90 0.91 0.92 0.91 0.90 0.90 0.90 0.93 0.96 0.99 1.06 1.17 1.22 1.27 1.30 1.32 1.33 1.29 1.29 1.29 1.25
0.39 0.38 0.36 0.29 0.29 0.30 0.33 0.39 0.38 0.44 0.43 0.36 0.34 0.35 0.36 0.34 0.34 0.34 0.33 0.32 0.23 0.26 0.26 0.22 0.17 0.25 0.43 0.49 0.52 0.52 0.53 0.54 0.56 0.58 0.58 0.55 0.57 0.58 0.59 0.59 0.59 0.59 0.59 0.59 0.59 0.59 0.59 0.59 0.57 0.57 0.58 0.59 0.60 0.60 0.61 0.63 0.65 0.66 0.65 0.67 0.73 0.77 0.80 0.83 0.87 0.87 0.86 0.87 0.89 0.92 0.91 0.89 0.89 0.90 0.93 0.95 1.00 1.07 1.14 1.19 1.24 1.28 1.29 1.29 1.28 1.29
0.39 0.37 0.35 0.26 0.21 0.18 0.17 0.20 0.23 0.27 0.31 0.34 0.35 0.33 0.34 0.31 0.30 0.28 0.22 0.24 0.19 0.25 0.27 0.23 0.22 0.33 0.42 0.46 0.46 0.49 0.50 0.51 0.55 0.56 0.58 0.58 0.55 0.56 0.57 0.57 0.57 0.57 0.57 0.58 0.59 0.59 0.58 0.58 0.59 0.58 0.58 0.59 0.60 0.61 0.62 0.63 0.63 0.63 0.64 0.63 0.67 0.69 0.72 0.74 0.78 0.80 0.81 0.82 0.82 0.86 0.88 0.90 0.90 0.89 0.90 0.93 0.95 0.97 1.02 1.06 1.12 1.16 1.20 1.25 1.25 1.26
0.37 0.39 0.36 0.32 0.28 0.25 0.26 0.29 0.35 0.38 0.34 0.27 0.30 0.31 0.31 0.32 0.32 0.30 0.29 0.23 0.20 0.26 0.25 0.28 0.28 0.31 0.34 0.39 0.41 0.45 0.47 0.47 0.49 0.52 0.53 0.53 0.53 0.55 0.56 0.55 0.55 0.55 0.56 0.56 0.57 0.58 0.59 0.59 0.59 0.59 0.59 0.59 0.59 0.60 0.61 0.62 0.62 0.62 0.63 0.63 0.64 0.66 0.67 0.69 0.69 0.69 0.71 0.75 0.78 0.80 0.84 0.88 0.90 0.92 0.92 0.93 0.94 0.96 0.98 0.99 1.00 1.02 1.05 1.11 1.14 1.15
0.38 0.33 0.34 0.32 0.31 0.33 0.36 0.35 0.37 0.37 0.32 0.32 0.29 0.28 0.31 0.30 0.30 0.27 0.24 0.22 0.30 0.26 0.21 0.32 0.35 0.30 0.33 0.38 0.41 0.43 0.46 0.47 0.49 0.49 0.51 0.51 0.51 0.51 0.52 0.53 0.53 0.54 0.55 0.56 0.56 0.56 0.56 0.58 0.59 0.60 0.60 0.60 0.59 0.59 0.60 0.62 0.62 0.62 0.62 0.62 0.63 0.64 0.65 0.66 0.66 0.65 0.64 0.65 0.67 0.72 0.78 0.84 0.88 0.91 0.93 0.94 0.94 0.95 0.96 0.98 0.98 0.97 0.97 0.98 1.01 1.05
0.37 0.32 0.36 0.36 0.33 0.37 0.39 0.39 0.40 0.37 0.36 0.34 0.32 0.31 0.29 0.30 0.29 0.26 0.26 0.29 0.29 0.24 0.20 0.30 0.34 0.31 0.34 0.38 0.42 0.44 0.46 0.46 0.47 0.48 0.50 0.51 0.52 0.52 0.50 0.48 0.49 0.50 0.52 0.53 0.55 0.56 0.57 0.57 0.59 0.60 0.61 0.61 0.60 0.58 0.59 0.60 0.62 0.63 0.63 0.62 0.62 0.63 0.63 0.65 0.65 0.63 0.63 0.62 0.62 0.64 0.68 0.73 0.80 0.86 0.89 0.91 0.92 0.93 0.94 0.96 0.98 0.97 0.96 0.96 0.95 0.96
0.42 0.35 0.38 0.38 0.33 0.35 0.37 0.40 0.42 0.37 0.36 0.35 0.33 0.33 0.32 0.30 0.28 0.28 0.29 0.31 0.30 0.28 0.29 0.30 0.31 0.31 0.36 0.39 0.43 0.45 0.47 0.47 0.47 0.49 0.48 0.48 0.48 0.48 0.47 0.46 0.46 0.48 0.51 0.53 0.55 0.56 0.57 0.58 0.59 0.61 0.61 0.61 0.60 0.58 0.57 0.58 0.61 0.63 0.63 0.63 0.63 0.62 0.63 0.63 0.61 0.61 0.61 0.60 0.61 0.62 0.65 0.67 0.69 0.72 0.76 0.79 0.83 0.87 0.89 0.92 0.95 0.96 0.95 0.94 0.94 0.94
0.41 0.34 0.42 0.39 0.34 0.32 0.36 0.39 0.40 0.39 0.36 0.31 0.34 0.35 0.34 0.32 0.30 0.30 0.31 0.32 0.33 0.31 0.31 0.30 0.29 0.28 0.36 0.41 0.42 0.45 0.46 0.47 0.46 0.44 0.46 0.47 0.47 0.45 0.44 0.45 0.46 0.48 0.51 0.54 0.56 0.56 0.57 0.58 0.59 0.60 0.60 0.61 0.60 0.59 0.57 0.57 0.59 0.62 0.62 0.63 0.64 0.63 0.64 0.62 0.59 0.58 0.58 0.58 0.60 0.61 0.63 0.64 0.65 0.66 0.66 0.68 0.71 0.74 0.77 0.81 0.85 0.89 0.91 0.93 0.93 0.92
0.42 0.36 0.43 0.38 0.32 0.30 0.36 0.36 0.36 0.38 0.37 0.33 0.28 0.26 0.27 0.28 0.26 0.29 0.28 0.33 0.29 0.27 0.29 0.29 0.25 0.26 0.34 0.39 0.41 0.43 0.44 0.43 0.42 0.44 0.46 0.46 0.45 0.45 0.44 0.45 0.46 0.48 0.48 0.49 0.51 0.53 0.53 0.55 0.57 0.58 0.59 0.60 0.60 0.59 0.58 0.57 0.57 0.58 0.59 0.62 0.62 0.63 0.65 0.63 0.61 0.59 0.58 0.58 0.59 0.60 0.59 0.61 0.63 0.64 0.65 0.66 0.66 0.67 0.68 0.69 0.70 0.71 0.75 0.80 0.85 0.88
0.39 0.36 0.33 0.33 0.29 0.28 0.35 0.37 0.35 0.34 0.31 0.25 0.27 0.29 0.30 0.29 0.28 0.30 0.32 0.35 0.34 0.34 0.28 0.24 0.26 0.33 0.36 0.40 0.38 0.41 0.44 0.44 0.43 0.42 0.42 0.42 0.43 0.43 0.43 0.44 0.46 0.47 0.47 0.47 0.49 0.49 0.49 0.52 0.56 0.58 0.58 0.59 0.60 0.59 0.58 0.57 0.55 0.53 0.56 0.59 0.62 0.63 0.62 0.61 0.60 0.60 0.60 0.60 0.59 0.58 0.58 0.58 0.58 0.60 0.62 0.64 0.65 0.66 0.66 0.65 0.64 0.63 0.63 0.63 0.67 0.71
0.39 0.36 0.33 0.36 0.26 0.26 0.34 0.34 0.35 0.27 0.18 0.20 0.32 0.37 0.36 0.32 0.31 0.28 0.28 0.30 0.32 0.34 0.32 0.32 0.34 0.38 0.41 0.42 0.41 0.42 0.41 0.40 0.39 0.42 0.44 0.42 0.42 0.43 0.44 0.45 0.45 0.45 0.46 0.48 0.51 0.51 0.51 0.52 0.53 0.55 0.56 0.57 0.58 0.59 0.59 0.58 0.55 0.54 0.56 0.58 0.59 0.59 0.59 0.59 0.60 0.59 0.59 0.60 0.60 0.60 0.60 0.58 0.57 0.56 0.57 0.60 0.62 0.64 0.63 0.63 0.62 0.63 0.64 0.63 0.62 0.62
0.35 0.34 0.32 0.34 0.28 0.25 0.30 0.30 0.24 0.17 0.19 0.30 0.37 0.38 0.39 0.37 0.35 0.31 0.31 0.34 0.35 0.36 0.36 0.35 0.36 0.38 0.41 0.42 0.42 0.41 0.40 0.40 0.43 0.44 0.44 0.46 0.47 0.45 0.43 0.43 0.44 0.45 0.45 0.47 0.49 0.50 0.48 0.49 0.49 0.50 0.52 0.53 0.55 0.56 0.55 0.54 0.53 0.51 0.51 0.54 0.54 0.55 0.55 0.56 0.57 0.59 0.59 0.59 0.60 0.61 0.61 0.60 0.58 0.57 0.57 0.57 0.58 0.58 0.59 0.59 0.59 0.60 0.61 0.61 0.60 0.59
0.34 0.32 0.32 0.30 0.30 0.31 0.25 0.22 0.14 0.16 0.28 0.34 0.35 0.37 0.39 0.38 0.35 0.33 0.29 0.31 0.34 0.34 0.35 0.33 0.36 0.40 0.41 0.40 0.41 0.42 0.40 0.41 0.45 0.46 0.46 0.47 0.48 0.45 0.43 0.41 0.43 0.44 0.43 0.46 0.47 0.48 0.47 0.48 0.49 0.49 0.49 0.52 0.54 0.52 0.51 0.49 0.50 0.48 0.47 0.50 0.49 0.50 0.50 0.50 0.52 0.56 0.59 0.60 0.60 0.60 0.61 0.61 0.59 0.58 0.58 0.57 0.57 0.57 0.56 0.56 0.57 0.56 0.58 0.58 0.58 0.59
0.38 0.35 0.32 0.25 0.32 0.20 0.21 0.20 0.19 0.27 0.26 0.27 0.28 0.30 0.32 0.28 0.29 0.26 0.20 0.24 0.30 0.33 0.33 0.32 0.35 0.39 0.40 0.40 0.41 0.41 0.41 0.40 0.39 0.39 0.45 0.44 0.45 0.45 0.44 0.43 0.43 0.43 0.43 0.44 0.46 0.45 0.45 0.47 0.47 0.49 0.50 0.50 0.52 0.52 0.50 0.50 0.49 0.46 0.45 0.43 0.44 0.44 0.43 0.44 0.45 0.49 0.54 0.57 0.60 0.61 0.62 0.61 0.60 0.59 0.58 0.58 0.56 0.55 0.55 0.56 0.56 0.56 0.58 0.56 0.55 0.55
0.41 0.32 0.34 0.25 0.24 0.27 0.21 0.18 0.18 0.17 0.14 0.20 0.27 0.32 0.37 0.36 0.35 0.33 0.26 0.21 0.30 0.32 0.34 0.33 0.34 0.37 0.38 0.40 0.40 0.40 0.40 0.33 0.28 0.31 0.37 0.40 0.42 0.42 0.44 0.44 0.45 0.44 0.43 0.43 0.45 0.44 0.44 0.44 0.45 0.46 0.47 0.48 0.49 0.50 0.52 0.52 0.50 0.47 0.44 0.42 0.42 0.41 0.39 0.39 0.41 0.45 0.48 0.51 0.55 0.59 0.63 0.64 0.63 0.60 0.59 0.58 0.56 0.55 0.55 0.56 0.57 0.57 0.58 0.55 0.53 0.53
0.40 0.39 0.35 0.28 0.24 0.25 0.22 0.18 0.16 0.14 0.16 0.24 0.27 0.31 0.35 0.37 0.35 0.34 0.25 0.17 0.24 0.27 0.31 0.32 0.33 0.36 0.37 0.37 0.37 0.39 0.32 0.23 0.22 0.27 0.35 0.40 0.40 0.41 0.40 0.41 0.41 0.41 0.41 0.42 0.41 0.40 0.41 0.42 0.43 0.43 0.45 0.43 0.43 0.46 0.49 0.50 0.49 0.45 0.43 0.44 0.43 0.42 0.40 0.39 0.40 0.42 0.44 0.47 0.51 0.54 0.58 0.62 0.64 0.64 0.63 0.62 0.60 0.58 0.55 0.53 0.54 0.56 0.58 0.57 0.56 0.54
0.34 0.32 0.31 0.26 0.24 0.24 0.22 0.19 0.16 0.20 0.18 0.26 0.30 0.33 0.35 0.37 0.35 0.29 0.13 0.12 0.21 0.25 0.29 0.30 0.30 0.31 0.32 0.34 0.35 0.32 0.25 0.18 0.20 0.28 0.36 0.38 0.38 0.39 0.39 0.38 0.38 0.39 0.40 0.41 0.43 0.43 0.42 0.43 0.43 0.41 0.41 0.40 0.40 0.43 0.44 0.45 0.43 0.42 0.42 0.42 0.43 0.40 0.38 0.39 0.41 0.42 0.44 0.45 0.48 0.51 0.55 0.59 0.61 0.63 0.64 0.64 0.64 0.62 0.59 0.58 0.56 0.54 0.53 0.53 0.54 0.53
0.28 0.29 0.28 0.22 0.23 0.24 0.22 0.20 0.21 0.22 0.27 0.31 0.32 0.34 0.36 0.37 0.31 0.18 0.10 0.14 0.23 0.26 0.30 0.32 0.32 0.33 0.33 0.31 0.32 0.26 0.29 0.29 0.30 0.35 0.37 0.39 0.37 0.38 0.40 0.41 0.40 0.40 0.39 0.38 0.38 0.40 0.40 0.41 0.41 0.39 0.40 0.41 0.41 0.42 0.42 0.40 0.37 0.35 0.35 0.36 0.35 0.34 0.35 0.38 0.40 0.41 0.41 0.42 0.43 0.46 0.50 0.57 0.61 0.63 0.64 0.66 0.65 0.65 0.63 0.61 0.58 0.57 0.55 0.54 0.54 0.53
0.26 0.26 0.27 0.26 0.22 0.20 0.22 0.18 0.18 0.21 0.28 0.34 0.36 0.36 0.37 0.29 0.17 0.15 0.22 0.26 0.26 0.27 0.30 0.33 0.33 0.34 0.34 0.32 0.32 0.32 0.33 0.35 0.36 0.37 0.38 0.37 0.36 0.36 0.37 0.38 0.38 0.38 0.39 0.39 0.38 0.36 0.35 0.37 0.38 0.37 0.38 0.39 0.40 0.40 0.40 0.38 0.34 0.33 0.32 0.32 0.30 0.30 0.33 0.34 0.34 0.35 0.36 0.37 0.38 0.41 0.47 0.54 0.60 0.63 0.63 0.64 0.65 0.64 0.64 0.65 0.64 0.60 0.59 0.58 0.57 0.55
0.25 0.22 0.21 0.21 0.23 0.23 0.22 0.19 0.17 0.14 0.29 0.35 0.35 0.33 0.36 0.23 0.23 0.30 0.31 0.31 0.31 0.29 0.30 0.32 0.33 0.34 0.34 0.33 0.35 0.34 0.34 0.35 0.36 0.36 0.37 0.37 0.36 0.35 0.36 0.37 0.36 0.36 0.35 0.35 0.35 0.35 0.34 0.34 0.35 0.35 0.36 0.37 0.38 0.37 0.37 0.35 0.31 0.30 0.29 0.28 0.29 0.31 0.32 0.32 0.32 0.32 0.32 0.34 0.35 0.38 0.42 0.50 0.56 0.59 0.61 0.61 0.62 0.62 0.62 0.65 0.66 0.65 0.62 0.60 0.59 0.58
0.33 0.23 0.23 0.24 0.26 0.19 0.19 0.17 0.17 0.24 0.29 0.37 0.33 0.25 0.30 0.30 0.33 0.34 0.32 0.30 0.32 0.32 0.30 0.30 0.33 0.34 0.35 0.34 0.34 0.34 0.35 0.35 0.36 0.36 0.36 0.36 0.37 0.37 0.38 0.39 0.38 0.38 0.37 0.38 0.37 0.35 0.36 0.35 0.36 0.36 0.36 0.37 0.37 0.37 0.36 0.33 0.28 0.27 0.25 0.25 0.29 0.30 0.30 0.30 0.30 0.30 0.30 0.32 0.35 0.37 0.41 0.48 0.55 0.59 0.59 0.59 0.59 0.60 0.60 0.63 0.65 0.66 0.64 0.63 0.61 0.59
0.34 0.28 0.30 0.25 0.31 0.25 0.23 0.25 0.30 0.34 0.36 0.38 0.36 0.34 0.34 0.35 0.35 0.35 0.34 0.34 0.32 0.33 0.35 0.32 0.31 0.34 0.35 0.35 0.34 0.33 0.32 0.34 0.33 0.35 0.34 0.34 0.36 0.37 0.37 0.37 0.37 0.37 0.37 0.36 0.36 0.37 0.36 0.36 0.36 0.36 0.36 0.38 0.38 0.38 0.37 0.34 0.29 0.26 0.24 0.27 0.30 0.29 0.28 0.28 0.28 0.27 0.28 0.30 0.33 0.36 0.39 0.45 0.53 0.57 0.59 0.60 0.59 0.57 0.58 0.59 0.61 0.61 0.64 0.64 0.63 0.62
0.39 0.38 0.40 0.35 0.32 0.35 0.36 0.35 0.37 0.37 0.37 0.37 0.38 0.38 0.36 0.36 0.38 0.38 0.36 0.35 0.36 0.36 0.36 0.33 0.34 0.35 0.36 0.38 0.34 0.34 0.34 0.35 0.35 0.36 0.36 0.37 0.37 0.38 0.39 0.38 0.38 0.39 0.38 0.38 0.37 0.36 0.35 0.36 0.36 0.35 0.34 0.35 0.37 0.37 0.37 0.34 0.31 0.27 0.27 0.30 0.31 0.30 0.30 0.28 0.27 0.26 0.27 0.30 0.33 0.35 0.38 0.40 0.48 0.55 0.59 0.60 0.61 0.60 0.59 0.58 0.58 0.58 0.59 0.61 0.61 0.62
0.38 0.39 0.36 0.30 0.35 0.29 0.25 0.35 0.34 0.34 0.35 0.37 0.37 0.39 0.40 0.40 0.39 0.39 0.39 0.39 0.39 0.40 0.39 0.38 0.37 0.38 0.38 0.38 0.37 0.36 0.36 0.38 0.36 0.37 0.38 0.38 0.38 0.38 0.38 0.38 0.39 0.39 0.39 0.37 0.37 0.36 0.34 0.33 0.33 0.32 0.33 0.31 0.34 0.34 0.34 0.32 0.30 0.29 0.29 0.29 0.30 0.30 0.30 0.28 0.26 0.25 0.27 0.29 0.32 0.35 0.37 0.38 0.42 0.48 0.55 0.59 0.61 0.61 0.61 0.60 0.59 0.58 0.57 0.57 0.56 0.58
0.31 0.43 0.33 0.33 0.33 0.29 0.28 0.34 0.35 0.37 0.37 0.39 0.39 0.37 0.37 0.39 0.40 0.41 0.42 0.42 0.42 0.42 0.41 0.39 0.40 0.39 0.41 0.38 0.38 0.37 0.37 0.38 0.37 0.37 0.38 0.38 0.39 0.40 0.40 0.41 0.41 0.41 0.42 0.41 0.40 0.37 0.34 0.33 0.32 0.32 0.31 0.30 0.31 0.31 0.30 0.27 0.26 0.27 0.28 0.28 0.29 0.29 0.28 0.27 0.25 0.24 0.26 0.28 0.31 0.32 0.34 0.36 0.39 0.43 0.48 0.55 0.58 0.59 0.59 0.60 0.60 0.58 0.57 0.56 0.56 0.56
0.37 0.41 0.28 0.33 0.29 0.33 0.36 0.36 0.37 0.38 0.36 0.35 0.37 0.39 0.41 0.41 0.40 0.41 0.42 0.42 0.43 0.41 0.40 0.41 0.42 0.41 0.41 0.40 0.41 0.40 0.39 0.39 0.40 0.41 0.40 0.41 0.41 0.42 0.43 0.43 0.44 0.44 0.44 0.42 0.41 0.39 0.35 0.34 0.34 0.33 0.31 0.30 0.30 0.29 0.25 0.22 0.22 0.24 0.25 0.26 0.28 0.28 0.26 0.25 0.24 0.24 0.26 0.29 0.30 0.30 0.33 0.35 0.37 0.39 0.43 0.49 0.55 0.59 0.61 0.60 0.59 0.58 0.59 0.62 0.62 0.61
0.34 0.28 0.33 0.31 0.26 0.25 0.26 0.30 0.34 0.26 0.24 0.29 0.33 0.34 0.38 0.41 0.41 0.40 0.41 0.41 0.42 0.41 0.41 0.39 0.41 0.43 0.43 0.43 0.42 0.42 0.40 0.40 0.42 0.43 0.42 0.43 0.43 0.44 0.45 0.46 0.46 0.46 0.46 0.46 0.44 0.42 0.39 0.37 0.36 0.34 0.32 0.30 0.29 0.26 0.22 0.21 0.20 0.21 0.24 0.25 0.26 0.27 0.25 0.25 0.24 0.24 0.26 0.28 0.29 0.30 0.31 0.32 0.34 0.37 0.39 0.42 0.47 0.53 0.59 0.65 0.65 0.63 0.60 0.60 0.64 0.65
0.30 0.31 0.31 0.27 0.25 0.24 0.31 0.35 0.38 0.34 0.30 0.32 0.34 0.37 0.39 0.41 0.41 0.39 0.38 0.39 0.41 0.42 0.42 0.41 0.40 0.41 0.42 0.43 0.45 0.44 0.42 0.43 0.44 0.46 0.45 0.45 0.46 0.48 0.49 0.48 0.48 0.48 0.48 0.47 0.45 0.42 0.40 0.39 0.39 0.37 0.34 0.31 0.29 0.26 0.23 0.21 0.20 0.20 0.22 0.24 0.26 0.26 0.26 0.26 0.25 0.25 0.26 0.28 0.29 0.30 0.31 0.31 0.33 0.35 0.36 0.38 0.41 0.46 0.52 0.57 0.64 0.66 0.66 0.65 0.64 0.65
Wind_Speed
8 8 9 10 10 11 11 9 9 8 7 8 8 9 10 10 11 11 11 12 11 9 9 10 9 9 10 10 10 11 10 9 11 12 13 14 15 17 19 21 23 24 25 24 24 25 26 27 29 27 26 24 23 23 23 23 23 22 21 21 20 19 19 19 18 18 17 17 17 17 19 21 23 24 24 25 25 25 25 26 25 24 23 22 22 21
8 8 10 10 10 11 11 10 8 8 8 8 8 9 10 10 11 12 11 11 10 8 9 9 8 9 10 11 10 9 9 10 12 12 13 13 14 15 17 19 21 23 24 25 24 24 26 27 28 28 27 26 24 24 23 23 23 22 21 21 21 19 19 20 19 18 18 17 17 17 17 19 22 24 25 25 25 25 26 26 26 25 24 23 22 22
8 8 10 10 9 8 9 9 8 8 8 8 9 9 10 10 11 11 11 10 10 8 10 10 8 10 11 11 10 8 10 11 11 12 13 13 13 14 16 17 19 20 22 24 25 25 25 26 27 28 28 27 26 25 24 24 23 22 22 22 21 20 19 20 19 19 18 17 17 16 16 18 20 23 25 25 25 25 26 26 26 26 25 24 24 23
8 9 10 9 7 7 8 8 7 8 8 8 8 9 10 10 10 10 11 11 10 9 10 10 9 10 11 10 9 8 10 11 10 11 12 12 13 14 15 17 18 18 20 22 24 25 25 25 27 28 28 27 26 26 25 25 24 23 22 22 22 21 20 20 20 19 19 18 17 17 16 17 18 20 24 26 26 26 26 27 27 26 26 25 25 24
9 10 9 7 6 7 8 8 7 7 9 9 9 9 9 10 10 11 11 11 10 10 10 9 10 12 11 10 10 9 10 11 10 11 11 12 13 14 15 16 17 18 19 21 23 25 25 26 26 27 28 28 27 26 26 26 25 24 24 24 23 22 21 21 21 21 20 19 18 18 17 17 18 19 22 26 27 26 27 27 27 27 27 26 26 25
9 10 8 7 7 7 7 8 8 7 8 9 9 10 10 10 10 10 10 9 9 10 11 10 10 13 13 11 10 10 10 11 11 11 12 13 13 14 15 15 16 17 18 20 21 24 25 26 26 27 28 28 27 26 26 27 26 26 25 25 25 24 23 22 23 22 21 20 20 19 19 19 19 19 20 23 26 27 27 27 27 27 28 27 27 26
9 9 8 7 7 7 7 8 9 7 6 8 9 9 9 8 7 8 8 8 9 10 11 10 10 13 13 12 11 11 11 10 11 12 13 14 14 15 16 16 16 16 17 19 21 22 24 25 26 26 27 28 28 26 26 27 27 27 26 26 25 25 25 24 24 24 23 22 22 22 21 21 20 20 19 20 24 26 28 28 28 28 28 28 28 27
8 9 9 8 7 7 7 8 8 6 5 8 9 7 6 6 7 8 7 8 9 10 10 9 10 12 12 12 12 12 11 10 10 12 14 14 14 15 16 16 17 16 17 18 20 21 22 23 24 25 26 27 28 27 27 27 27 27 27 26 26 27 27 26 26 26 25 24 23 23 23 22 22 21 20 20 22 25 28 29 29 29 29 29 29 28
9 9 9 8 8 8 9 8 8 6 6 9 8 5 5 6 7 8 7 8 9 8 9 9 9 10 11 12 11 11 10 10 10 12 14 14 15 15 16 17 18 18 17 18 19 21 22 22 23 24 25 26 27 28 28 28 27 27 27 27 27 28 28 28 27 26 25 24 24 24 24 23 23 22 22 21 22 24 27 30 30 30 29 29 30 29
9 9 9 7 8 9 10 9 7 7 8 8 6 5 6 6 6 6 7 8 8 8 9 10 9 9 10 10 10 10 10 10 11 12 13 14 15 16 17 18 18 18 18 18 19 21 22 22 23 23 24 25 26 27 28 28 28 28 28 28 28 28 28 28 28 27 26 26 25 25 25 25 24 24 23 23 23 24 27 30 31 31 30 30 30 30
10 9 8 7 8 9 9 8 7 7 8 7 5 6 6 6 6 6 7 7 7 8 10 10 9 9 9 9 9 9 9 10 10 11 12 13 14 15 16 17 17 17 18 19 19 20 22 22 23 23 23 24 25 26 27 28 28 28 28 28 28 28 28 28 28 28 28 28 28 27 26 26 26 25 24 24 23 23 25 29 31 31 31 30 30 30
10 8 8 8 8 8 7 7 7 7 7 6 6 5 5 6 5 5 6 5 6 8 9 9 8 7 8 9 8 7 8 9 9 10 11 11 11 13 15 16 16 16 17 18 18 20 21 22 22 22 22 23 24 25 25 26 27 27 27 27 28 28 28 28 28 29 29 29 29 29 29 28 27 26 26 25 24 24 25 28 31 31 31 31 30 30
8 7 8 8 7 6 5 6 7 7 6 6 5 4 4 5 4 4 5 4 6 7 7 7 7 7 7 7 6 7 8 9 9 9 9 9 9 11 13 14 16 16 16 17 17 18 20 21 22 22 22 22 23 24 25 25 25 25 25 26 27 28 28 28 28 29 30 30 30 30 30 29 29 28 27 26 25 24 25 27 30 31 31 31 30 30
8 8 9 8 7 7 5 5 6 6 6 5 4 4 3 3 2 4 5 4 5 6 6 7 7 6 7 7 5 7 8 9 9 8 7 6 6 10 12 13 14 15 16 16 17 17 18 19 21 21 22 22 23 23 24 24 24 25 25 25 26 27 29 30 30 30 30 31 31 30 30 30 30 29 28 28 27 25 24 26 29 30 31 31 31 30
7 8 8 7 7 7 5 5 5 6 5 5 4 4 3 4 3 5 5 4 5 5 6 6 6 6 7 6 5 7 9 8 7 7 6 5 4 7 9 10 12 14 15 16 16 17 17 18 19 20 21 21 22 23 23 24 24 24 25 25 26 26 28 30 30 30 29 29 29 29 29 30 30 30 30 29 29 28 26 26 28 29 30 31 31 31
6 7 8 8 7 6 6 6 5 4 5 5 4 3 3 4 3 3 4 4 4 4 4 5 5 6 6 5 4 5 7 7 6 5 4 4 3 4 5 7 9 12 15 16 16 16 17 18 19 19 20 20 20 21 22 23 23 23 24 25 25 26 28 28 27 28 29 29 29 29 29 30 31 31 30 30 29 29 29 28 29 29 29 30 30 31
6 7 8 8 8 6 6 7 6 5 5 5 4 3 4 4 3 2 3 2 1 2 3 4 5 6 6 5 3 1 2 3 5 3 2 3 3 2 3 4 6 8 11 15 16 16 17 18 19 19 19 19 20 21 21 21 22 22 23 23 24 25 27 28 27 26 27 28 29 29 30 30 31 32 31 31 30 30 30 30 30 30 29 29 30 30
6 8 9 8 8 7 6 6 7 6 5 5 4 5 4 3 2 3 2 2 2 2 3 4 5 6 6 5 5 3 0 2 4 3 1 2 3 3 3 3 4 5 7 10 13 14 15 16 17 18 19 19 19 19 20 20 21 21 21 21 21 22 24 26 26 25 25 27 28 29 30 30 30 31 31 31 31 31 30 30 31 31 31 30 30 30
5 7 9 7 7 8 7 5 6 7 6 6 6 6 4 3 3 3 3 2 2 1 1 2 3 5 6 5 4 4 2 2 3 3 3 2 3 3 2 2 3 3 5 7 9 11 11 12 13 15 16 17 17 18 19 19 19 19 19 20 20 19 19 20 22 23 24 25 26 28 29 29 30 30 31 30 31 31 30 30 31 32 32 31 31 31
6 6 7 8 7 7 6 5 6 7 6 6 6 5 5 5 4 3 3 2 1 1 2 2 2 3 5 5 2 2 3 1 1 2 3 2 2 2 2 1 1 2 4 5 8 9 9 10 11 12 13 15 16 17 18 18 19 18 18 19 20 20 18 17 18 20 21 22 24 25 26 28 29 30 31 30 30 31 31 31 31 32 32 32 32 32
6 6 6 8 8 6 5 4 5 6 6 6 5 5 5 5 5 3 3 2 1 2 2 2 2 2 4 4 2 2 2 1 1 1 1 1 1 1 2 1 1 2 3 4 6 8 9 10 11 11 12 14 15 17 18 19 19 19 18 18 19 20 20 19 19 19 20 21 21 22 23 25 27 28 29 30 30 30 31 31 32 32 32 32 32 32
6 6 6 8 7 5 4 4 4 5 6 5 5 5 6 6 5 4 3 2 1 2 3 3 2 2 2 2 2 2 2 1 1 1 1 1 0 1 1 1 0 2 3 3 4 6 8 9 10 12 12 13 14 15 17 18 20 20 20 19 19 20 20 21 21 20 20 20 20 21 21 22 23 25 26 27 28 29 30 30 31 32 32 33 32 32
5 5 6 7 6 4 4 3 3 3 4 4 4 5 6 6 5 5 4 3 2 2 2 2 2 2 2 2 2 2 1 0 1 2 1 1 1 1 1 1 1 1 2 3 3 5 6 7 9 11 12 13 13 14 15 17 19 20 21 20 19 19 20 21 21 21 21 21 21 21 20 20 21 22 23 25 25 26 27 28 29 29 31 32 32 32
5 5 5 6 5 5 4 2 1 2 3 3 3 4 5 6 6 6 5 3 2 3 3 2 1 3 3 2 2 2 1 0 1 1 2 2 2 2 2 2 2 2 2 2 3 4 5 6 8 9 11 13 14 15 15 16 17 19 21 21 20 20 20 21 21 22 22 23 23 23 22 21 20 20 21 23 23 24 24 25 26 27 28 29 30 31
5 5 5 5 6 6 5 4 2 1 1 2 4 4 5 6 5 5 5 3 3 4 4 3 2 3 2 2 2 2 1 1 1 1 1 1 2 2 2 2 3 3 3 4 4 5 6 6 8 9 10 12 14 15 15 15 16 18 19 21 21 20 21 22 22 23 24 24 24 24 24 23 22 21 21 22 23 24 24 24 25 26 27 28 29 29
4 5 5 5 5 5 4 3 2 1 1 2 3 4 5 5 5 6 5 4 4 4 3 3 3 2 2 2 2 2 2 1 1 1 1 1 2 3 3 3 4 4 4 5 5 6 6 7 8 9 9 10 12 13 15 15 16 17 18 20 21 21 21 22 22 23 24 24 25 25 25 25 24 24 23 23 23 24 25 24 24 25 27 28 29 29
5 5 5 5 5 4 3 2 1 1 1 1 2 3 4 6 6 6 5 5 5 4 3 4 4 3 3 4 3 3 3 2 2 2 2 3 4 4 5 5 5 5 6 6 6 7 7 7 8 9 9 10 11 12 14 15 16 17 18 19 20 21 21 22 23 23 23 23 24 25 25 26 26 26 25 25 25 25 26 25 24 25 25 26 27 28
4 5 5 5 5 5 4 3 3 3 2 0 1 2 3 4 5 6 7 7 5 4 4 5 4 4 5 5 5 5 4 4 4 4 4 5 6 6 6 7 7 7 7 7 8 8 8 8 9 9 10 11 11 12 13 14 15 16 17 18 20 21 22 22 23 24 24 24 25 25 26 26 27 28 28 27 27 26 27 26 25 25 24 24 25 27
4 4 4 5 5 5 4 4 3 3 3 1 0 1 1 2 4 6 8 8 6 5 6 5 5 5 6 6 6 6 6 6 6 6 6 7 7 8 8 8 9 9 9 9 9 9 9 10 10 10 11 11 11 12 13 13 14 15 16 17 18 20 22 23 24 24 25 25 26 27 27 27 28 29 29 29 29 28 28 27 27 27 26 25 25 26
3 3 3 4 5 5 4 4 4 4 4 3 1 1 1 1 3 5 6 7 7 7 7 6 6 7 7 7 8 8 8 8 8 8 8 8 9 9 10 10 10 10 10 10 10 10 10 11 11 11 11 11 11 12 13 13 14 14 15 16 17 18 20 22 24 25 26 26 27 28 29 29 29 29 29 29 29 30 29 29 30 30 29 28 28 28
3 2 3 4 5 5 5 5 5 5 4 3 2 1 1 1 2 3 4 5 6 6 7 6 7 8 8 8 8 8 8 8 8 8 9 10 10 10 11 11 10 10 10 10 11 11 11 11 11 11 11 11 12 12 12 13 14 14 15 16 16 18 19 21 22 24 26 27 28 29 30 30 30 30 30 30 30 30 31 31 31 32 32 31 31 30
3 2 3 4 5 4 5 6 6 6 5 4 4 2 1 2 1 2 4 5 5 5 5 6 7 9 9 8 7 8 8 8 9 10 10 10 10 10 10 9 9 9 9 10 10 10 10 10 11 11 11 11 11 11 12 12 13 14 15 15 16 17 19 20 21 23 25 26 28 29 30 32 32 33 33 32 32 32 32 32 33 33 33 33 33 33
2 2 2 3 4 4 5 5 5 6 6 4 4 3 2 2 1 1 2 3 4 4 4 5 6 8 8 7 7 8 9 9 10 10 9 9 9 8 8 8 8 8 9 9 9 9 9 10 10 10 10 10 10 10 11 11 12 13 14 15 16 17 18 19 21 23 24 25 27 28 30 31 33 34 35 35 35 35 35 35 35 35 35 35 35 35
1 2 2 2 3 3 4 5 5 6 5 3 3 2 2 1 2 2 1 3 3 3 3 4 5 5 5 5 6 7 8 8 8 8 7 7 7 7 8 8 8 8 8 8 8 8 8 9 9 9 9 9 9 9 10 10 11 12 13 13 14 15 17 18 20 22 23 24 26 27 29 30 31 33 34 35 36 36 36 36 36 36 36 36 36 36
1 1 1 2 2 3 4 5 5 4 2 2 4 3 2 2 3 2 1 1 2 3 2 3 4 4 4 4 4 4 5 5 6 6 6 6 6 7 7 8 8 8 8 8 8 8 8 8 8 9 8 9 9 9 9 9 10 10 11 12 13 14 15 17 18 20 21 23 25 26 27 29 30 31 33 34 35 36 36 37 37 37 37 37 37 37
2 1 1 2 2 2 3 4 3 3 3 3 4 3 2 3 3 3 3 3 2 2 2 3 4 4 4 3 3 3 4 4 5 5 6 6 6 6 7 7 7 8 8 8 8 9 9 8 9 9 9 9 9 9 9 9 9 10 10 10 11 13 14 15 16 17 19 21 23 25 27 28 30 31 32 33 34 35 36 37 37 38 38 38 38 38
3 2 2 2 2 2 2 2 3 5 5 4 3 2 1 2 1 1 2 4 3 3 3 3 4 4 4 3 4 5 5 4 5 7 7 7 7 6 6 7 7 7 7 7 7 8 8 8 9 9 9 9 9 9 9 9 9 10 10 10 11 12 13 14 15 16 17 19 21 23 25 27 29 31 33 34 35 36 37 38 39 39 39 39 39 39
4 4 4 3 3 2 2 4 4 4 4 3 3 3 2 2 1 1 3 5 5 4 4 4 4 5 5 4 4 5 4 4 6 8 7 7 7 6 6 7 7 6 7 6 6 7 7 8 8 8 9 9 9 9 9 9 9 10 10 10 11 12 13 13 14 15 16 17 18 20 22 24 27 29 31 33 35 37 38 39 40 40 40 41 41 41
4 4 4 4 4 3 2 3 3 3 4 4 5 5 4 2 1 3 5 6 6 4 5 4 5 6 6 5 5 4 4 5 7 7 7 6 6 6 6 6 6 6 6 6 7 7 7 8 8 8 9 9 9 9 10 10 10 11 11 11 12 12 13 14 14 15 16 17 17 18 19 21 23 25 27 29 32 34 36 37 38 39 40 40 41 42
4 5 5 5 6 6 4 4 5 5 5 6 6 5 4 2 2 4 5 7 6 4 5 5 5 6 6 6 5 4 5 6 6 6 6 6 6 6 6 6 7 7 7 8 8 8 8 8 8 8 9 9 9 10 10 10 11 12 12 13 13 14 14 15 15 16 16 17 17 18 19 20 21 22 23 25 27 29 31 34 35 37 38 39 40 40
5 5 6 6 7 6 6 6 6 6 6 6 5 4 3 2 4 4 5 6 5 3 4 4 5 5 5 5 5 5 6 6 5 5 6 5 6 6 6 7 7 7 8 8 8 9 9 9 9 9 9 9 10 10 10 11 12 12 13 13 13 14 15 15 16 16 17 17 18 18 19 20 21 21 22 22 24 25 27 29 31 33 34 35 36 37
5 5 5 5 5 5 5 6 6 7 6 4 3 3 3 3 4 5 5 5 4 3 3 4 4 4 4 4 5 5 5 5 5 5 5 5 5 6 7 7 7 7 7 8 8 8 9 9 9 9 9 9 10 10 11 11 12 13 13 13 13 14 15 15 16 16 17 18 18 18 19 20 21 21 21 22 23 24 25 26 27 28 29 30 31 33
6 5 5 6 5 4 4 4 4 5 5 2 1 3 4 4 4 4 4 4 3 2 2 3 3 3 3 4 4 4 4 4 4 4 5 5 5 6 6 6 6 7 7 8 8 8 8 8 8 9 9 9 9 10 11 11 12 13 13 13 13 14 14 15 15 16 17 17 18 18 19 20 20 21 21 21 22 23 23 24 24 25 26 27 28 29
5 5 5 5 5 4 3 4 4 5 5 4 2 3 4 4 3 2 1 1 2 1 0 2 2 2 3 3 3 3 4 4 4 4 5 5 6 6 6 6 6 7 7 8 8 8 8 8 8 9 9 9 9 10 11 11 12 13 13 13 13 13 14 15 15 16 17 18 18 19 19 20 20 20 20 20 21 21 21 21 22 22 23 25 26 27
4 4 4 4 4 4 4 5 5 5 4 5 5 3 3 3 2 1 1 1 2 1 1 1 1 2 2 2 2 2 3 3 4 4 4 5 5 5 5 6 6 7 7 8 8 9 8 8 8 9 10 10 10 11 11 11 12 13 13 13 13 14 14 15 16 16 17 18 18 19 19 20 20 20 20 20 20 20 20 20 20 20 21 22 23 25
3 3 3 3 3 4 4 4 4 4 4 5 6 4 2 2 2 1 1 2 2 2 2 1 1 2 2 1 2 2 3 3 4 4 4 5 5 5 6 6 7 7 7 8 8 8 8 8 9 9 10 11 11 11 12 12 12 13 13 13 14 14 15 15 16 17 17 18 18 19 19 20 20 20 20 20 20 20 20 19 19 20 20 21 22 23
2 3 3 2 2 2 2 3 3 3 3 4 6 6 4 3 3 3 3 4 4 3 3 3 3 2 2 2 2 3 4 4 4 5 5 5 6 6 7 7 8 8 8 9 9 9 8 9 9 10 10 11 12 12 13 13 13 14 14 14 14 15 15 16 16 17 18 18 18 19 19 19 20 20 20 20 20 20 20 20 20 20 21 21 22 23
2 2 2 3 2 2 3 4 4 4 4 5 5 6 6 5 5 5 5 5 5 5 4 4 3 3 3 3 4 4 5 5 5 5 6 6 6 7 8 8 9 9 9 9 9 9 9 10 10 11 11 12 12 13 13 13 13 14 14 15 15 15 16 16 17 17 18 18 19 19 20 19 20 20 19 19 20 20 20 21 21 22 22 22 23 24
2 3 3 3 3 3 4 5 4 4 5 5 6 7 8 7 7 7 7 6 6 6 5 5 4 4 4 4 5 5 5 6 6 6 6 7 7 8 9 9 9 10 10 10 10 10 11 11 11 12 12 12 13 13 14 14 14 14 15 15 15 15 16 17 17 18 18 18 19 20 20 20 20 20 20 20 20 19 20 20 22 23 24 24 25 25
4 4 4 3 3 4 5 5 3 3 4 5 5 6 7 7 7 7 7 7 6 6 5 5 5 5 5 6 5 5 6 7 7 6 7 8 8 9 9 10 10 10 11 11 11 11 12 12 12 13 13 13 14 14 14 14 15 15 15 15 15 16 16 17 17 17 18 18 19 20 20 20 20 20 20 20 20 20 20 20 21 22 24 25 25 26
6 6 6 5 5 6 6 6 5 4 5 5 5 5 5 5 5 6 6 6 6 6 5 5 5 6 6 7 7 7 7 8 8 7 8 9 9 10 10 10 11 11 12 12 12 12 13 13 13 13 14 14 14 14 15 15 15 16 16 15 15 16 16 17 17 17 17 18 18 19 20 20 20 20 20 21 21 20 20 20 21 21 22 24 25 26
Wind_Direction
295 296 290 283 279 279 278 276 274 272 269 272 271 265 261 260 262 260 259 264 262 255 256 248 240 245 246 245 250 250 244 238 238 239 239 240 239 235 232 232 232 230 228 228 227 226 225 219 214 213 211 211 212 212 210 210 210 210 210 210 211 211 211 211 212 213 214 215 217 218 219 220 219 218 219 219 219 219 219 220 220 220 220 220 221 222
297 296 285 277 275 277 278 275 274 273 271 274 271 266 266 258 256 258 255 264 263 252 254 247 237 246 246 243 248 247 240 239 240 239 240 242 241 238 236 235 234 232 230 229 227 225 222 219 215 213 213 214 214 211 210 210 210 210 211 211 212 211 211 212 213 214 215 216 218 219 220 220 220 220 220 220 221 221 221 221 221 221 221 221 222 222
300 290 281 278 279 284 289 281 273 273 269 272 273 268 267 261 261 261 254 261 264 251 251 248 235 242 247 242 241 240 234 235 239 237 238 241 241 239 237 237 236 235 234 231 230 226 222 219 216 215 217 217 216 214 213 210 209 211 212 213 214 213 212 212 213 215 216 217 219 220 220 220 222 222 222 222 223 222 222 222 222 222 222 222 223 223
293 285 281 282 286 291 296 291 278 277 275 272 272 267 266 266 266 261 254 259 265 255 247 242 237 242 245 242 236 235 233 234 240 241 238 239 241 241 237 235 236 237 236 234 231 228 224 221 219 218 219 218 216 215 214 211 212 215 215 215 215 215 215 214 214 216 217 219 221 222 222 222 223 225 225 224 224 224 223 223 223 223 223 223 224 224
283 284 286 291 295 292 293 294 280 274 280 276 267 262 264 268 264 257 255 258 262 261 250 240 244 244 240 240 241 241 238 237 246 249 247 245 244 244 241 237 237 236 236 234 231 228 225 223 222 221 220 218 215 215 215 215 218 219 218 217 216 216 217 218 218 218 219 221 222 224 225 224 224 226 226 224 224 225 224 224 224 224 224 223 224 225
283 286 291 296 301 298 294 291 275 263 277 281 269 258 259 262 261 260 258 254 254 257 250 240 241 243 240 239 244 247 243 243 248 252 252 250 248 247 246 243 240 237 234 232 231 229 227 226 225 224 222 220 218 217 219 221 222 222 220 219 219 219 220 220 220 221 222 223 223 225 227 227 226 226 226 225 224 224 225 226 225 225 224 224 224 225
286 293 296 295 298 302 300 290 275 264 273 280 272 261 259 260 258 256 251 245 244 247 248 240 234 239 243 243 246 248 243 244 251 255 254 251 249 248 246 243 241 238 235 231 230 229 228 226 226 225 223 222 221 222 223 223 224 223 221 220 221 222 223 223 223 222 224 226 226 226 229 230 230 229 228 227 226 226 227 227 227 226 225 225 225 226
288 298 304 301 300 302 300 290 276 264 263 272 273 266 262 262 255 248 243 241 245 248 253 250 235 235 241 241 246 247 240 244 253 256 255 251 251 251 247 244 241 238 235 231 228 229 228 227 225 224 224 224 224 225 225 224 224 222 221 223 224 226 226 225 224 224 224 226 228 228 230 232 233 233 232 231 230 229 229 229 229 227 226 226 226 226
290 294 296 297 298 294 285 277 268 257 263 269 268 268 264 263 257 248 241 243 250 253 253 253 240 235 241 241 245 246 240 247 255 256 256 253 253 254 251 246 241 238 235 230 227 227 227 227 225 224 224 225 226 225 225 226 225 223 224 227 228 228 229 228 227 228 227 227 229 230 232 233 234 234 235 234 235 235 231 229 229 229 227 227 227 227
293 286 283 288 290 283 275 273 264 252 267 269 263 277 282 280 274 257 246 244 250 248 243 248 243 236 244 248 249 247 244 251 255 254 257 257 257 257 253 246 242 239 236 233 229 226 226 226 224 224 225 226 226 226 227 227 227 227 228 230 231 231 233 233 232 232 232 231 231 232 233 234 234 234 235 236 238 239 235 230 229 228 228 228 228 229
298 293 288 291 287 278 272 275 270 259 268 268 267 287 289 286 282 266 258 247 246 248 241 245 245 236 242 249 249 248 252 259 259 257 260 261 261 257 248 242 239 238 237 235 231 226 225 224 223 223 225 225 226 226 227 228 228 229 230 231 232 234 236 238 237 235 234 233 233 234 235 235 235 235 236 237 239 241 237 229 227 227 228 229 229 229
311 309 298 294 292 291 283 275 277 277 278 272 274 283 277 279 281 268 267 251 238 244 241 242 244 238 240 244 249 253 257 262 261 260 261 261 259 251 242 237 236 236 236 235 232 227 224 223 223 223 224 224 225 225 227 228 228 229 230 231 233 235 237 239 239 236 234 234 234 234 235 235 236 237 238 239 240 241 236 228 225 226 227 228 229 230
314 306 302 299 297 306 298 272 273 285 288 280 275 275 266 277 282 264 262 252 239 239 237 241 244 241 239 241 252 260 260 261 259 258 258 260 261 248 238 236 234 232 233 234 233 230 227 223 223 224 225 225 224 225 226 229 230 230 231 232 234 237 239 239 239 238 236 235 235 234 234 235 236 237 239 241 241 240 235 228 226 227 227 228 229 230
315 308 313 312 302 305 297 267 265 274 283 280 258 244 249 255 258 254 252 254 251 241 242 250 245 239 238 238 255 266 265 264 260 258 254 253 260 248 236 235 234 231 230 230 231 230 230 227 225 225 226 226 226 226 227 229 232 233 234 236 237 239 241 240 239 239 238 237 237 236 235 235 237 238 239 241 241 240 236 230 227 227 227 228 230 231
315 308 309 308 301 302 293 267 253 253 270 271 235 220 238 230 227 244 240 240 249 248 259 259 243 238 238 238 257 267 268 264 256 254 240 223 245 247 234 230 232 230 227 227 228 228 229 230 229 227 227 227 228 228 229 231 233 236 237 239 239 241 243 244 242 241 241 241 241 239 236 236 237 239 240 241 242 241 240 236 232 228 227 228 231 232
311 300 300 303 299 301 296 277 259 248 259 260 238 226 245 230 221 239 232 228 242 257 273 260 239 233 229 232 255 274 275 256 235 235 220 204 229 240 223 220 225 227 225 225 227 227 229 231 230 229 228 229 230 231 231 232 234 237 240 240 240 242 243 245 245 243 243 243 242 240 239 239 240 240 242 243 242 241 241 241 237 234 231 231 232 234
315 305 305 312 306 301 296 279 266 253 246 248 244 238 240 226 198 202 231 246 262 263 262 247 228 219 219 221 215 257 306 228 196 203 211 207 210 189 180 202 214 222 223 222 223 226 229 231 230 230 230 231 233 233 233 234 236 238 241 242 242 244 246 247 247 246 244 243 242 242 242 243 243 242 243 244 244 242 242 241 238 236 235 234 234 235
312 308 310 317 306 298 297 277 263 258 243 234 237 236 237 238 220 213 234 286 313 280 258 239 215 207 212 213 195 195 351 95 135 160 177 195 191 162 133 161 187 200 210 214 216 220 225 228 229 230 232 233 235 235 234 235 236 237 240 241 243 247 250 249 247 245 243 242 243 244 244 245 245 244 244 244 243 242 241 240 238 236 235 235 235 236
321 319 316 319 306 298 302 276 256 263 256 234 228 230 231 234 238 235 241 275 304 279 247 219 208 206 204 198 191 212 230 86 90 116 127 138 173 172 138 122 153 174 186 196 203 209 214 220 223 226 230 233 234 235 234 234 235 236 238 239 242 245 248 249 246 244 245 245 245 246 245 246 246 245 244 244 243 241 240 240 238 236 236 236 236 237
329 330 318 318 315 304 302 280 255 258 258 242 232 237 239 229 226 228 233 242 203 173 184 169 195 210 194 180 171 195 202 167 68 98 118 121 141 162 169 154 146 160 170 186 198 204 209 214 219 223 228 233 235 236 237 236 237 239 240 240 241 243 245 248 247 247 249 248 247 247 247 246 246 245 244 243 243 241 241 240 238 237 237 237 237 238
334 336 319 319 325 318 299 279 253 239 235 233 227 232 239 234 230 226 231 239 164 160 176 165 185 213 186 174 171 165 163 140 57 84 105 112 129 144 159 172 179 171 173 191 206 212 218 223 226 228 232 236 238 239 239 239 239 242 243 242 242 244 245 247 248 250 251 249 248 249 249 248 247 245 244 243 243 242 242 241 239 238 238 238 238 239
338 338 326 326 336 333 295 256 236 224 216 213 214 220 225 225 220 213 230 248 195 170 183 174 187 217 189 176 165 140 125 74 69 78 44 25 53 117 95 67 142 188 206 223 225 223 228 234 236 238 239 240 241 243 243 242 241 241 243 244 245 245 246 248 249 250 249 248 249 250 251 250 248 246 244 243 244 244 243 242 240 239 239 239 240 241
344 349 343 341 347 339 300 256 228 217 203 200 212 216 214 218 212 202 217 230 197 186 194 177 200 232 205 182 153 133 135 48 59 69 59 37 32 47 33 9 359 316 254 249 247 241 242 247 248 247 247 245 244 245 247 247 245 242 242 244 247 248 248 248 248 248 248 248 249 249 250 251 249 247 245 243 244 245 244 242 241 240 240 240 241 244
352 359 359 359 1 355 341 332 290 220 194 204 233 221 211 219 216 206 211 211 190 197 193 178 241 236 208 196 183 168 197 233 47 49 60 52 35 27 15 356 338 322 304 287 276 268 264 263 262 260 258 254 250 249 251 252 251 247 243 243 245 247 247 247 247 248 249 248 247 247 248 249 249 248 247 244 244 244 244 242 240 240 240 241 243 245
359 3 10 20 18 9 5 8 2 306 221 224 240 234 221 218 212 207 215 214 205 204 184 173 222 225 205 203 203 210 243 267 3 28 56 52 18 1 349 342 333 320 310 301 293 287 284 279 275 272 267 263 258 255 255 256 255 251 246 243 245 247 246 246 247 249 249 248 247 246 247 248 248 248 248 246 245 244 243 242 241 241 241 243 245 247
21 19 20 34 34 24 18 12 2 317 262 237 240 242 228 218 214 211 214 215 218 213 189 183 209 217 215 211 203 223 255 281 316 336 345 327 324 317 312 314 315 312 310 306 298 290 287 285 284 283 277 270 264 258 255 257 257 255 251 247 246 248 248 248 249 249 249 248 248 248 248 248 248 247 247 246 245 243 242 243 244 244 244 245 247 248
40 36 33 51 55 50 53 42 41 62 40 258 256 256 233 224 221 210 207 215 217 217 221 227 221 209 219 220 219 244 266 273 279 285 289 290 291 292 295 298 299 300 301 301 299 294 288 284 282 285 284 279 274 266 260 258 258 258 257 252 249 250 250 250 250 250 249 247 247 248 248 248 248 248 247 247 246 245 244 246 248 247 246 247 248 248
48 38 35 51 51 49 55 42 40 59 59 29 272 274 241 229 219 207 212 219 215 219 244 248 232 215 227 232 234 250 261 263 269 272 273 276 281 286 290 293 294 295 295 295 295 293 289 283 279 278 280 280 279 276 271 267 264 260 258 257 253 251 252 251 251 252 251 249 248 248 249 248 248 248 249 249 249 248 248 249 247 246 247 250 250 249
58 36 32 45 35 28 39 36 40 52 44 39 25 263 245 226 209 206 216 219 213 224 241 241 226 221 232 239 243 249 251 253 260 265 269 276 280 283 286 291 292 291 290 290 288 287 285 283 280 277 276 275 276 277 276 275 272 267 263 261 258 255 254 253 253 253 253 252 251 250 250 249 249 249 249 250 250 250 250 249 247 246 249 252 253 252
52 28 28 45 31 19 22 29 40 45 32 23 8 281 205 196 205 208 217 219 216 227 237 232 227 233 238 237 242 250 253 256 262 266 272 276 276 280 286 290 290 287 286 285 284 286 285 282 281 279 276 275 275 274 274 274 274 273 270 266 263 260 258 256 255 255 255 254 254 253 252 251 250 250 250 250 250 249 250 249 249 250 251 253 254 254
40 22 24 45 38 20 20 26 32 34 26 17 4 327 161 150 195 208 215 219 219 229 238 233 232 243 247 240 243 253 253 255 261 264 270 274 276 282 288 289 288 287 285 284 284 286 287 284 283 281 278 278 276 275 274 274 273 273 272 270 268 265 263 259 257 257 256 256 256 255 254 253 252 252 252 252 251 250 250 250 250 252 253 254 255 256
45 35 24 41 39 19 17 21 17 18 26 29 20 18 133 130 156 203 213 219 219 221 231 233 235 244 247 243 245 252 249 251 258 263 269 275 277 280 283 286 288 287 285 285 286 288 290 287 285 284 282 281 279 278 276 275 275 275 273 272 270 268 267 264 262 260 258 258 257 256 255 254 254 254 255 254 254 253 253 252 252 253 254 254 255 256
64 57 27 37 33 4 3 13 14 22 35 35 20 31 93 108 112 191 231 231 218 208 214 227 236 242 243 241 245 253 253 255 259 262 268 274 275 276 279 283 287 288 288 288 288 290 293 291 289 287 286 286 284 282 280 278 278 278 275 273 272 271 270 269 267 264 262 260 259 257 257 256 255 255 256 256 256 256 255 255 254 254 254 254 255 255
62 56 19 16 21 352 347 5 21 34 44 31 8 35 82 92 113 143 226 230 215 217 225 231 242 246 240 237 243 251 254 254 256 261 268 272 275 280 284 287 289 290 292 292 290 291 296 298 298 294 291 289 289 289 287 284 283 282 278 276 275 275 274 273 272 269 267 264 262 260 259 257 256 256 255 256 256 256 256 256 256 255 254 254 254 254
148 42 346 349 8 346 344 12 30 33 23 352 356 12 37 67 101 109 329 255 211 220 229 229 240 239 230 234 247 255 258 258 260 266 275 278 279 284 289 293 293 292 293 293 291 292 299 304 304 302 298 294 292 293 294 293 291 289 286 282 280 280 280 278 276 274 271 268 265 263 261 260 258 257 256 255 255 255 256 256 256 256 255 254 254 254
186 223 286 322 332 332 352 23 26 335 319 338 354 2 24 46 62 48 351 313 250 222 218 226 240 239 232 245 271 285 283 278 275 277 285 289 289 291 294 296 295 293 293 293 289 291 298 303 303 303 302 298 295 296 298 297 295 296 295 291 288 288 287 285 283 280 277 273 270 267 265 263 262 260 258 257 256 255 255 255 256 256 256 255 255 255
193 219 258 291 296 309 339 336 323 329 339 349 351 343 1 19 28 29 341 309 280 242 228 236 246 249 252 267 287 292 293 295 293 290 291 294 295 296 297 296 295 295 297 297 293 291 295 299 300 301 303 303 299 298 299 299 299 301 302 301 299 297 295 294 292 288 284 280 276 272 269 267 265 264 262 261 259 258 257 256 256 256 256 256 256 256
210 227 234 254 275 289 323 326 332 342 335 321 310 308 318 333 343 18 349 320 298 255 231 231 239 246 253 268 283 289 295 298 295 293 293 294 295 296 296 295 295 295 298 301 299 296 298 300 302 303 304 305 303 301 301 301 302 305 307 308 308 306 304 302 300 297 292 287 283 279 275 272 269 268 266 264 262 261 260 259 258 257 257 256 256 256
238 245 238 246 265 267 276 300 306 302 298 297 296 302 313 318 332 358 342 319 302 262 229 227 238 244 249 259 269 280 292 290 288 289 289 289 292 293 293 294 294 295 298 301 299 298 300 303 306 307 307 307 307 306 304 303 305 307 308 308 309 310 309 307 305 302 298 294 290 285 281 278 275 273 270 267 265 264 263 262 260 259 258 257 257 257
246 254 251 246 251 255 257 269 276 280 291 295 293 297 300 298 341 355 329 304 297 268 230 225 237 245 250 258 263 272 280 280 283 286 285 286 291 290 289 291 293 295 301 304 301 298 298 301 306 309 309 310 309 307 307 308 309 310 309 308 308 308 309 308 307 305 302 299 295 292 288 284 281 278 275 272 270 268 266 264 262 260 259 258 258 258
243 252 251 244 246 249 249 260 275 281 286 289 287 284 281 307 337 334 302 294 296 266 232 229 235 241 245 246 251 265 273 275 282 288 289 294 299 299 297 297 296 299 305 307 306 304 302 302 305 308 307 307 307 307 308 310 312 312 312 311 310 310 309 308 306 305 304 302 301 299 296 292 288 285 281 277 274 272 269 266 263 261 260 259 259 259
239 246 248 242 243 246 244 256 277 286 285 286 289 283 283 302 306 294 291 301 298 258 244 244 238 237 239 238 247 266 279 286 291 294 297 302 305 304 303 303 303 306 310 312 313 313 310 308 309 312 312 310 309 309 310 312 313 313 312 312 312 312 311 310 309 308 306 305 305 304 302 299 296 292 288 284 280 277 273 269 264 261 259 259 259 259
231 233 242 240 235 243 258 267 280 287 280 268 297 306 295 288 284 284 301 321 310 266 246 243 239 234 231 239 254 272 285 295 298 295 297 301 301 302 302 303 308 312 316 321 322 322 321 317 315 318 320 318 316 315 316 317 317 315 315 314 313 312 312 311 310 309 308 307 308 308 306 304 302 299 296 291 287 283 279 274 267 263 260 259 259 259
231 223 233 239 233 233 252 257 262 275 266 235 230 281 277 266 278 303 325 346 349 349 252 230 237 233 225 236 257 270 281 293 296 293 294 297 299 302 306 309 313 316 319 324 326 326 326 323 321 323 325 324 323 322 322 323 322 320 319 318 318 317 316 315 315 313 311 310 309 309 309 307 306 304 301 297 292 288 285 280 273 267 264 262 261 261
231 215 211 224 231 234 243 251 262 277 262 230 231 266 275 259 263 310 354 355 351 348 338 252 238 234 231 243 262 272 281 291 294 293 294 298 301 306 311 312 315 318 321 325 329 329 325 321 321 324 324 324 323 322 322 323 323 322 322 322 323 323 322 321 320 319 316 314 313 312 310 309 307 306 304 300 296 292 288 284 279 274 270 268 266 265
236 215 206 224 247 256 257 256 263 278 264 235 232 251 288 282 265 266 297 312 316 319 325 315 270 248 242 253 270 282 287 289 291 292 294 299 304 307 310 312 314 317 319 324 329 330 327 324 324 324 325 324 323 321 320 319 319 319 321 323 324 325 324 323 323 322 321 320 318 316 315 313 311 309 306 302 298 293 288 285 281 278 274 272 270 270
240 211 213 233 244 246 253 256 257 266 268 249 239 246 266 280 275 271 278 288 297 301 301 299 290 280 277 271 270 278 283 284 286 289 292 297 301 304 307 307 308 310 313 318 323 326 324 322 321 322 325 326 325 325 324 321 318 317 318 319 321 323 323 323 324 324 324 323 322 320 319 318 316 314 311 306 300 295 289 284 281 279 276 274 274 274
219 196 210 223 214 213 241 260 267 276 280 271 254 251 257 263 267 271 276 284 291 291 290 292 289 284 285 282 278 282 287 287 287 289 293 297 300 303 305 303 303 306 309 312 316 318 318 316 315 317 321 323 323 324 325 325 323 321 319 319 319 320 321 322 324 325 325 325 324 323 322 322 321 319 316 311 305 298 292 287 283 280 278 276 276 277
209 213 224 224 234 260 270 270 276 291 293 283 266 255 252 253 258 264 270 277 282 282 282 282 278 276 280 284 285 286 287 288 289 291 293 296 300 302 302 301 303 305 307 310 311 312 312 311 311 313 316 318 319 320 322 325 325 324 322 321 320 321 321 321 323 324 324 325 325 324 325 325 324 324 322 318 311 304 297 291 285 281 279 278 278 278
231 239 242 238 251 267 266 255 248 271 288 287 278 264 251 247 250 257 262 267 270 271 273 273 275 280 286 288 288 288 288 289 291 292 292 295 298 299 299 301 303 306 307 309 310 309 309 308 308 309 313 315 316 317 318 322 324 323 322 322 322 323 322 322 323 324 325 325 325 325 326 326 326 325 325 323 319 312 305 298 291 285 281 280 279 279
237 239 236 233 241 249 251 246 240 248 268 279 287 285 269 251 244 247 252 257 261 266 272 275 279 286 292 292 291 288 288 290 290 289 292 295 296 297 299 301 303 305 307 307 308 308 308 306 306 307 310 313 315 314 315 319 321 321 320 320 322 323 323 323 323 324 324 325 326 326 327 328 327 327 327 326 323 319 313 307 301 294 288 284 282 281